{"data":{"norad_id":69030,"intl_designator":"2026-101F","name":"STARLINK-37615","alt_names":[],"object_type":"PAYLOAD","status":"ACTIVE","operator":null,"country":"US","launch_date":"2026-05-06","launch_site_code":"AFWTR","launch_vehicle":null,"mission":null,"orbit_class":"UNKNOWN","rcs_meters":null,"size_class":null,"mass_kg":null,"dimensions":null,"purposes":["comms"],"wikipedia_slug":null,"has_3d_model":false,"image_url":null,"decayed_at":null,"tle_current":{"epoch":"2026-05-25T03:31:35.048352Z","epoch_age_seconds":56187,"freshness":"FRESH","line1":"1 69030U 26101F   26145.14693343  .00136558  00000+0  90110-3 0  9990","line2":"2 69030  97.2845 359.8995 0001263  79.1377 281.0031 15.75209119  3018","mean_motion":15.75209119,"eccentricity":0.0001263,"inclination_deg":97.2845,"raan_deg":359.8995,"arg_perigee_deg":79.1377,"mean_anomaly_deg":281.0031,"bstar":0.0009011,"rev_number":301,"period_min":91.416433705905,"perigee_km":343.18716436536,"apogee_km":344.88518530933,"semimajor_km":6722.1731748373,"source":"CELESTRAK","updated_at":"2026-05-25T13:38:22.080188Z"}}}